Regional Weather Roundup
Issued by NWS Little Rock, AR

Home | Current Version | Previous Version | Graphics & Text | Print | Product List | Glossary On
Versions: 1 2 3 4 5 6 7 8 9 10 11 12 13 14 15 16 17 18 19 20 21 22 23 24 25 26 27 28 29 30 31 32 33 34 35 36 37 38 39 40 41 42 43 44 45 46 47 48 49 50
541
ASUS44 KLZK 220105
RWRLZK

WEATHER ROUNDUP FOR ARKANSAS
NATIONAL WEATHER SERVICE LITTLE ROCK AR
800 PM CDT MON MAY 21 2018

NOTE: "FAIR" INDICATES FEW OR NO CLOUDS BELOW 12,000 FEET WITH NO
SIGNIFICANT WEATHER AND/OR OBSTRUCTIONS TO VISIBILITY.

ARZ001-003-010-029-220200-
NORTHWEST ARKANSAS

CITY           SKY/WX    TMP DP  RH WIND       PRES   REMARKS
FAYETTEVILLE   CLEAR     76  68  76 W3        29.99S
FORT SMITH     CLEAR     80  68  66 SE3       29.95S
HARRISON       CLEAR     74  69  85 CALM      30.01R
BENTONVILLE    CLEAR     77  64  64 N6        30.02R
ROGERS         CLEAR     77  65  66 CALM      30.01S
SILOAM SPGS    CLEAR     75  67  76 N3        30.00S
HIGHFILL       CLEAR     77  65  66 N5        30.00S
SPRINGDALE     MOCLDY    77  66  69 NE5       30.01S
$$

ARZ004-005-016-220200-
NORTH CENTRAL ARKANSAS

CITY           SKY/WX    TMP DP  RH WIND       PRES   REMARKS
BATESVILLE     MOCLDY    76  69  79 S3        30.00R
FLIPPIN        CLOUDY    77  70  79 MISG      29.99R
MTN HOME       CLEAR     76  70  82 S3        29.98S
$$

ARZ040-041-220200-
WEST CENTRAL ARKANSAS

CITY           SKY/WX    TMP DP  RH WIND       PRES   REMARKS
MENA           MOCLDY    79  72  78 E5        30.00S
MOUNT IDA      CLOUDY    78  72  81 VRB5      29.97R
$$

ARZ009-017-025-026-028-220200-
NORTHEAST ARKANSAS

CITY           SKY/WX    TMP DP  RH WIND       PRES   REMARKS
CORNING        FAIR      77  73  88 SE6       29.99R
JONESBORO      FAIR      78  73  84 S7        30.00R
NEWPORT        FAIR      77  72  84 SE10      30.00R
WALNUT RIDGE     N/A     79  72  79 S7        29.99R
BLYTHEVILLE    FAIR      77  70  79 S8        30.00R
$$

ARZ022-023-033-042-044-220200-
CENTRAL ARKANSAS

CITY           SKY/WX    TMP DP  RH WIND       PRES   REMARKS
LITTLE ROCK    MOCLDY    77  71  82 SE6       29.99R
N LITTLE ROCK    N/A     75  71  88 E6        29.96R
CONWAY         PTCLDY    79  72  78 SE9       29.98R
SEARCY         FAIR      75  75 100 CALM      30.00R
HOT SPRINGS    CLOUDY    79  71  76 NW7       29.98R
RUSSELLVILLE   CLOUDY    77  71  82 CALM      29.97R
CLINTON        FAIR      79  70  73 CALM      29.98S
$$

ARZ036-220200-
EAST ARKANSAS

CITY           SKY/WX    TMP DP  RH WIND       PRES   REMARKS
WEST MEMPHIS   FAIR      76  74  93 CALM      30.00R FOG
$$

ARZ050-053-066-070-073-220200-
SOUTHWEST ARKANSAS

CITY           SKY/WX    TMP DP  RH WIND       PRES   REMARKS
ARKADELPHIA    FAIR      78  74  87 CALM      29.98R
CAMDEN         FAIR      77  66  69 CALM      29.96R
TEXARKANA      PTCLDY    80  70  71 CALM      29.96R
EL DORADO      FAIR      80  74  81 NE6       29.98R HX  85
DE QUEEN       PTCLDY    80  73  79 CALM      29.94R
$$

ARZ056-057-069-220200-
SOUTHEAST ARKANSAS

CITY           SKY/WX    TMP DP  RH WIND       PRES   REMARKS
PINE BLUFF     FAIR      76  70  82 E8        30.00R
STUTTGART      FAIR      76  71  85 E8        30.01R
MONTICELLO     FAIR      76  70  82 E7        30.00R

$$






USA.gov is the U.S. government's official web portal to all federal, state and local government web resources and services.